This is the latest recevied weather packets stored in our database for station/object HG2HNB-13. If no packets are shown the sender has not sent any weather packets the latest 10 day(s).
| Time | Temp. | Humidity | Pressure | Rain* | Wind** | Luminosity | Snow |
|---|---|---|---|---|---|---|---|
| 1778107281 | 17.22° C | 52% | 1010.8 hPa | 0 mm | - | - | - |
| 1778106705 | 17.22° C | 52% | 1011 hPa | 0 mm | - | - | - |
| 1778105505 | 17.78° C | 49% | 1010.6 hPa | 0 mm | - | - | - |
| 1778101945 | 18.33° C | 46% | 1010.6 hPa | 0 mm | - | - | - |
| 1778101329 | 18.33° C | 45% | 1010.4 hPa | 0 mm | - | - | - |
| 1778097681 | 18.89° C | 44% | 1010 hPa | 0 mm | - | - | - |
| 1778097105 | 18.89° C | 43% | 1010.1 hPa | 0 mm | - | - | - |
| 1778095925 | 19.44° C | 43% | 1010.3 hPa | 0 mm | - | - | - |
| 1778092325 | 19.44° C | 42% | 1010 hPa | 0 mm | - | - | - |
| 1778091681 | 20° C | 42% | 1009.7 hPa | 0 mm | - | - | - |
| 1778089281 | 20.56° C | 42% | 1009.6 hPa | 0 mm | - | - | - |
| 1778087525 | 20.56° C | 43% | 1009.2 hPa | 0 mm | - | - | - |
| 1778086901 | 20.56° C | 43% | 1009.5 hPa | 0 mm | - | - | - |
| 1778085701 | 20.56° C | 42% | 1009.5 hPa | 0 mm | - | - | - |
| 1778084521 | 21.11° C | 42% | 1009.5 hPa | 0 mm | - | - | - |
| 1778083905 | 21.11° C | 42% | 1009.8 hPa | 0 mm | - | - | - |
| 1778082705 | 21.11° C | 41% | 1009.7 hPa | 0 mm | - | - | - |
| 1778077281 | 22.22° C | 40% | 1010 hPa | 0 mm | - | - | - |
| 1778076705 | 22.22° C | 39% | 1010 hPa | 0 mm | - | - | - |
| 1778076101 | 22.22° C | 39% | 1009.7 hPa | 0 mm | - | - | - |
| 1778073681 | 24.44° C | 32% | 1009.9 hPa | 0 mm | - | - | - |
| 1778072501 | 23.89° C | 32% | 1010 hPa | 0 mm | - | - | - |
| 1778071905 | 22.78° C | 33% | 1010 hPa | 0 mm | - | - | - |
| 1778069505 | 23.89° C | 32% | 1010.4 hPa | 0 mm | - | - | - |
| 1778068305 | 23.33° C | 32% | 1010.3 hPa | 0 mm | - | - | - |
* Rain latest hour (hover to see other rain measurements)
** Current wind speed in m/s (hover to see current wind gust speed)